Flag for Cuba Weather past 2 weeks in Santa Clara, Cuba

Now
90 °F

Hot.


Feels Like: 98 °F
Forecast: 74 / 90 °F
Wind: 16 mph from East

Location: Cienfuegos - Las Villas

Current Time: May 25, 2015 at 1:58:16 PM

Latest Report: May 25, 2015 at 12:58 PM


Visibility: N/A

Pressure: 30.09 "Hg

Humidity: 59%

Dew point: 73 °F

Location of Santa ClaraLocation

Historic Weather in Santa Clara — Graph

°F

Santa Clara temperature yesterday

Maximum temperature yesterday: 91 °F (at 12:57 PM)
Minimum temperature yesterday: 73 °F (at 5:58 AM)
Average temperature yesterday: 80 °F

Past Weeks' High & Low Weather Summary

 TemperatureHumidityPressure
High95 °F (May 10, 2:50 PM)100% (May 12, 5:58 AM)30.15 "Hg (May 12, 5:58 AM)
Low68 °F (May 13, 5:58 AM)39% (May 10, 2:50 PM)29.92 "Hg (May 20, 4:58 PM)
Average80 °F79%30.05 "Hg
* Reported May 10 12:50 PM — May 25 12:58 PM, Santa Clara, Weather by CustomWeather, © 2015

Note: Actual official high and low records may vary slightly from our data, if they occured in-between our weather recording intervals... More about our weather records

Advertising

Santa Clara weather history for previous 24 hours

 ConditionsComfort  
Time TempWeatherWind HumidityBarometerVisibility
12:58 PM
Mon, May 25
90 °FHot.16 mph59%30.09 "HgN/A
11:58 AM88 °FWarm.14 mph62%30.09 "HgN/A
10:58 AM86 °FWarm.17 mph66%30.09 "HgN/A
9:58 AM84 °FWarm.14 mph74%30.09 "HgN/A
8:58 AM81 °FWarm.12 mph84%30.09 "HgN/A
7:58 AM77 °FWarm.8 mph89%30.09 "HgN/A
6:58 AM75 °FMild.10 mph94%30.07 "HgN/A
5:58 AM75 °FMild.12 mph94%30.07 "HgN/A
4:58 AM75 °FMild.9 mph94%30.04 "HgN/A
3:58 AM75 °FMild.9 mph94%30.04 "HgN/A
2:58 AM75 °FMild.15 mph94%30.07 "HgN/A
1:58 AM75 °FMild.8 mph94%30.07 "HgN/A
12:58 AM75 °FMild.5 mph94%30.09 "HgN/A
11:57 PM
Sun, May 24
75 °FMild.3 mph94%30.09 "HgN/A
10:58 PM75 °FMild.1 mph100%30.09 "HgN/A
9:58 PM75 °FMild.2 mph100%30.09 "HgN/A
8:58 PM75 °FMild.12 mph94%30.07 "HgN/A
7:58 PM75 °FMild.10 mph94%30.04 "HgN/A
6:58 PM77 °FWarm.6 mph94%30.04 "HgN/A
5:58 PM75 °FMild.9 mph94%30.04 "HgN/A
4:58 PM77 °FWarm.16 mph89%30.04 "HgN/A
3:58 PM86 °FWarm.16 mph66%30.01 "HgN/A
2:58 PM86 °FWarm.17 mph70%30.04 "HgN/A
1:58 PM88 °FWarm.17 mph62%30.04 "HgN/A
Weather by CustomWeather, © 2015

See weather overviewHow to use our weather pages